Weather History for Yuma MCAS, AZ

Change the Weather History Date:

Wednesday, August 21, 2013

  Actual Average Record
Temperature  
Mean Temperature 100 °F 94 °F  
Max Temperature 111 °F 106 °F 115 °F (1961)
Min Temperature 88 °F 82 °F 63 °F (1924)
Degree Days  
Heating Degree Days 0 0  
Month to date heating degree days 0 0  
Since 1 June heating degree days 0 0  
Since 1 July heating degree days 0 0  
Cooling Degree Days 35 29  
Month to date cooling degree days 633 621  
Year to date cooling degree days 3445 3167  
Since 1 June cooling degree days 2384 2255  
Growing Degree Days 49 (Base 50)    
Moisture  
Dew Point 58 °F    
Average Humidity 29    
Maximum Humidity 44    
Minimum Humidity 13    
Precipitation  
Precipitation 0.00 in 0.02 in 0.58 in (1883)
Month to date precipitation 0.00 0.32  
Year to date precipitation 1.58 1.94  
Sea Level Pressure  
Sea Level Pressure 29.76 in    
Wind  
Wind Speed 7 mph (SSE)    
Max Wind Speed 20 mph    
Max Gust Speed 24 mph    
Visibility 10 miles    
Events      
T = Trace of Precipitation, MM = Missing Value Source: NWS Daily Summary

Daily Weather History Graph

Daily Weather History Graph

Search for Another Location

Airport:

Trip Planner

Search our weather history database for the weather conditions in past years. The results will help you decide how hot, cold, wet, or windy it might be!

Date:

Astronomy

Aug. 21, 2013 Rise Set
Actual Time 6:06 AM MST 7:16 PM MST
Civil Twilight 5:40 AM MST 7:41 PM MST
Nautical Twilight 5:10 AM MST 8:12 PM MST
Astronomical Twilight 4:38 AM MST 8:43 PM MST
Moon 7:35 PM MST (8/21) 6:45 AM MST (8/21)
Length of Visible Light 14h 01m
Length of Day
13h 09m
Full, 99% of the Moon is Illuminated
Aug 21
Full
Aug 28
Last Quarter
Sep 5
New
Sep 12
First Quarter
Sep 19
Full

Hourly Weather History & Observations

Time (MST) Temp. Heat Index Dew Point Humidity Pressure Visibility Wind Dir Wind Speed Gust Speed Precip Events Conditions
12:57 AM 91.9 °F 89.5 °F 54.0 °F 27% 29.76 in 10.0 mi South 8.1 mph - N/A   Mostly Cloudy
1:57 AM 91.0 °F 89.2 °F 55.9 °F 30% 29.75 in 10.0 mi SW 5.8 mph - N/A   Mostly Cloudy
2:57 AM 89.1 °F 88.0 °F 57.9 °F 35% 29.75 in 10.0 mi Calm Calm - N/A   Mostly Cloudy
3:57 AM 91.0 °F 90.5 °F 60.1 °F 35% 29.75 in 10.0 mi SE 6.9 mph - N/A   Mostly Cloudy
4:57 AM 91.0 °F 90.5 °F 60.1 °F 35% 29.76 in 10.0 mi ESE 4.6 mph - N/A   Mostly Cloudy
5:57 AM 89.1 °F 88.8 °F 60.1 °F 38% 29.77 in 10.0 mi NE 3.5 mph - N/A   Mostly Cloudy
6:57 AM 91.9 °F 91.2 °F 59.0 °F 33% 29.78 in 10.0 mi ESE 8.1 mph - N/A   Mostly Cloudy
7:57 AM 95.0 °F 94.0 °F 57.9 °F 29% 29.79 in 10.0 mi East 8.1 mph - N/A   Mostly Cloudy
8:57 AM 98.1 °F 96.4 °F 55.9 °F 24% 29.80 in 10.0 mi ESE 3.5 mph - N/A   Scattered Clouds
9:57 AM 100.9 °F 100.0 °F 57.0 °F 23% 29.81 in 10.0 mi SE 8.1 mph - N/A   Scattered Clouds
10:57 AM 102.9 °F 102.4 °F 57.0 °F 22% 29.81 in 10.0 mi SSW 6.9 mph - N/A   Scattered Clouds
11:57 AM 106.0 °F 105.1 °F 55.0 °F 19% 29.80 in 10.0 mi SSW 9.2 mph - N/A   Scattered Clouds
12:57 PM 108.0 °F - 50.0 °F 15% 29.78 in 10.0 mi SE 9.2 mph 16.1 mph N/A   Scattered Clouds
1:57 PM 109.0 °F - 50.0 °F 14% 29.76 in 10.0 mi Variable 4.6 mph - N/A   Scattered Clouds
2:57 PM 109.9 °F - 50.0 °F 14% 29.73 in 10.0 mi Variable 3.5 mph - N/A   Scattered Clouds
3:57 PM 109.0 °F - 50.0 °F 14% 29.70 in 10.0 mi Calm Calm - N/A   Scattered Clouds
4:57 PM 109.9 °F - 48.9 °F 13% 29.70 in 10.0 mi SE 3.5 mph - N/A   Mostly Cloudy
5:57 PM 106.0 °F 107.8 °F 61.0 °F 23% 29.70 in 10.0 mi SW 19.6 mph - N/A   Mostly Cloudy
6:57 PM 100.9 °F 102.1 °F 61.0 °F 27% 29.73 in 10.0 mi SSW 15.0 mph - N/A   Mostly Cloudy
7:57 PM 97.0 °F 100.4 °F 66.0 °F 36% 29.74 in 10.0 mi SSW 9.2 mph - N/A   Mostly Cloudy
8:57 PM 97.0 °F 99.9 °F 64.9 °F 35% 29.76 in 10.0 mi SE 6.9 mph - N/A   Mostly Cloudy
9:57 PM 96.1 °F 99.9 °F 66.9 °F 38% 29.77 in 10.0 mi SSE 9.2 mph - N/A   Mostly Cloudy
10:57 PM 93.0 °F 97.4 °F 68.0 °F 44% 29.77 in 10.0 mi SSE 9.2 mph - N/A   Mostly Cloudy
11:57 PM 91.9 °F 95.9 °F 68.0 °F 45% 29.78 in 10.0 mi SSE 12.7 mph - N/A   Mostly Cloudy